When you browse on this site, cookies collect data to enhance your experience and personalize the content and advertising you see.
Visit our Privacy Policy to learn more. By continuing to use the site, you agree to this use of cookies and data.
  • In Hungary
  • List of Countries
  • For 7 days
  • Water Temperature
  • Weather Map
  • News
  • Weather Widgets
  • user-avatar
    Login

    Hourly Weather Oksford

    Today, 1 June, Monday

    Time Temperature Precipitation Wind Pressure Humidity
    00:00 +8°C° 0 mm 4 mps 762 mmHg 89%
    01:00 +7°C° 0 mm 4 mps 762 mmHg 91%
    02:00 +8°C° 0 mm 3 mps 762 mmHg 94%
    03:00 +8°C° 0 mm 3 mps 761 mmHg 96%
    04:00 +9°C° 0 mm 3 mps 762 mmHg 94%
    05:00 +10°C° 0 mm 4 mps 762 mmHg 93%
    06:00 +11°C° 0 mm 4 mps 762 mmHg 90%
    07:00 +13°C° 0 mm 4 mps 762 mmHg 85%
    08:00 +15°C° 0 mm 4 mps 762 mmHg 79%
    09:00 +18°C° 0 mm 4 mps 762 mmHg 74%
    10:00 +19°C° 0 mm 4 mps 762 mmHg 71%
    11:00 +20°C° 0 mm 5 mps 762 mmHg 68%
    12:00 +21°C° 0 mm 5 mps 762 mmHg 64%
    13:00 +21°C° 0 mm 4 mps 761 mmHg 64%
    14:00 +22°C° 0 mm 4 mps 761 mmHg 64%
    15:00 +22°C° 0 mm 4 mps 761 mmHg 63%
    16:00 +21°C° 0 mm 4 mps 761 mmHg 68%
    17:00 +21°C° 0 mm 3 mps 761 mmHg 72%
    18:00 +20°C° 0 mm 3 mps 761 mmHg 76%
    19:00 +19°C° 0 mm 3 mps 761 mmHg 81%
    20:00 +17°C° 0 mm 3 mps 761 mmHg 87%
    21:00 +14°C° 0 mm 3 mps 762 mmHg 92%
    22:00 +13°C° 0 mm 3 mps 762 mmHg 93%
    23:00 +12°C° 0 mm 3 mps 762 mmHg 93%

    Tomorrow, 2 June, Tuesday

    Time Temperature Precipitation Wind Pressure Humidity
    00:00 +10°C° 0 mm 3 mps 762 mmHg 94%
    01:00 +10°C° 0 mm 3 mps 761 mmHg 93%
    02:00 +9°C° 0 mm 2 mps 761 mmHg 93%
    03:00 +8°C° 0 mm 2 mps 761 mmHg 93%
    04:00 +9°C° 0 mm 2 mps 761 mmHg 92%
    05:00 +10°C° 0 mm 3 mps 761 mmHg 91%
    06:00 +10°C° 0 mm 3 mps 761 mmHg 89%
    07:00 +12°C° 0 mm 3 mps 761 mmHg 83%
    08:00 +14°C° 0 mm 3 mps 761 mmHg 77%
    09:00 +17°C° 0 mm 3 mps 760 mmHg 71%
    10:00 +18°C° 0 mm 3 mps 760 mmHg 67%
    11:00 +19°C° 0 mm 3 mps 760 mmHg 63%
    12:00 +20°C° 0 mm 2 mps 760 mmHg 59%
    13:00 +20°C° 0 mm 2 mps 759 mmHg 59%
    14:00 +21°C° 0 mm 2 mps 759 mmHg 59%
    15:00 +21°C° 0 mm 2 mps 758 mmHg 59%
    16:00 +21°C° 0 mm 2 mps 758 mmHg 63%
    17:00 +20°C° 0 mm 2 mps 757 mmHg 67%
    18:00 +20°C° 0 mm 2 mps 757 mmHg 71%
    19:00 +19°C° 0 mm 1 mps 756 mmHg 75%
    20:00 +16°C° 0 mm 1 mps 756 mmHg 79%
    21:00 +14°C° 0 mm 1 mps 756 mmHg 83%
    22:00 +13°C° 0 mm 1 mps 756 mmHg 83%
    23:00 +13°C° 0 mm 1 mps 755 mmHg 83%

    Day after tomorrow, 3 June, Wednesday

    Time Temperature Precipitation Wind Pressure Humidity
    00:00 +13°C° 0 mm 1 mps 755 mmHg 83%
    01:00 +13°C° 0 mm 1 mps 754 mmHg 82%
    02:00 +12°C° 0 mm 2 mps 754 mmHg 82%
    03:00 +12°C° 0 mm 2 mps 753 mmHg 81%
    04:00 +13°C° 0 mm 2 mps 753 mmHg 80%
    05:00 +12°C° 0 mm 3 mps 752 mmHg 80%
    06:00 +13°C° 0 mm 3 mps 752 mmHg 79%
    07:00 +13°C° 0 mm 3 mps 752 mmHg 80%
    08:00 +13°C° 0 mm 3 mps 752 mmHg 82%
    09:00 +14°C° 0 mm 3 mps 751 mmHg 83%
    10:00 +13°C° 0.1 mm 4 mps 751 mmHg 84%
    11:00 +13°C° 0.1 mm 4 mps 751 mmHg 85%
    12:00 +13°C° 0.1 mm 5 mps 751 mmHg 86%
    13:00 +13°C° 0 mm 5 mps 751 mmHg 85%
    14:00 +13°C° 0 mm 5 mps 751 mmHg 83%
    15:00 +13°C° 0 mm 6 mps 750 mmHg 81%
    16:00 +13°C° 0 mm 6 mps 750 mmHg 82%
    17:00 +13°C° 0 mm 6 mps 750 mmHg 82%
    18:00 +13°C° 0 mm 6 mps 750 mmHg 82%
    19:00 +11°C° 0 mm 6 mps 750 mmHg 81%
    20:00 +12°C° 0 mm 5 mps 751 mmHg 80%
    21:00 +10°C° 0 mm 5 mps 751 mmHg 80%
    22:00 +9°C° 0 mm 5 mps 751 mmHg 84%
    23:00 +8°C° 0 mm 4 mps 751 mmHg 89%

    4 June, Thursday

    Time Temperature Precipitation Wind Pressure Humidity
    00:00 +7°C° 0 mm 4 mps 751 mmHg 93%
    01:00 +8°C° 0 mm 4 mps 750 mmHg 93%
    02:00 +8°C° 0 mm 4 mps 750 mmHg 93%
    03:00 +8°C° 0 mm 5 mps 750 mmHg 93%
    04:00 +8°C° 0 mm 5 mps 750 mmHg 90%
    05:00 +9°C° 0 mm 5 mps 750 mmHg 87%
    06:00 +9°C° 0 mm 5 mps 749 mmHg 83%
    07:00 +10°C° 0 mm 5 mps 750 mmHg 78%
    08:00 +10°C° 0 mm 6 mps 750 mmHg 72%
    09:00 +11°C° 0 mm 6 mps 750 mmHg 67%
    10:00 +12°C° 0 mm 5 mps 749 mmHg 65%
    11:00 +13°C° 0 mm 5 mps 749 mmHg 63%
    12:00 +13°C° 0 mm 5 mps 749 mmHg 62%
    13:00 +13°C° 0 mm 4 mps 749 mmHg 63%
    14:00 +13°C° 0 mm 4 mps 748 mmHg 64%
    15:00 +13°C° 0 mm 4 mps 748 mmHg 65%
    16:00 +13°C° 0.1 mm 3 mps 748 mmHg 68%
    17:00 +13°C° 0.1 mm 3 mps 748 mmHg 71%
    18:00 +13°C° 0.1 mm 3 mps 748 mmHg 73%
    19:00 +12°C° 0.1 mm 3 mps 748 mmHg 78%
    20:00 +10°C° 0.1 mm 2 mps 748 mmHg 83%
    21:00 +9°C° 0.1 mm 2 mps 748 mmHg 88%
    22:00 +8°C° 0 mm 2 mps 748 mmHg 90%
    23:00 +8°C° 0 mm 3 mps 748 mmHg 92%

    5 June, Friday

    Time Temperature Precipitation Wind Pressure Humidity
    00:00 +7°C° 0 mm 3 mps 748 mmHg 94%
    01:00 +7°C° 0 mm 3 mps 747 mmHg 94%
    02:00 +7°C° 0 mm 3 mps 747 mmHg 95%
    03:00 +7°C° 0 mm 3 mps 747 mmHg 96%
    04:00 +8°C° 0 mm 3 mps 747 mmHg 94%
    05:00 +8°C° 0 mm 4 mps 747 mmHg 92%
    06:00 +10°C° 0 mm 4 mps 747 mmHg 91%
    07:00 +11°C° 0 mm 4 mps 746 mmHg 88%
    08:00 +12°C° 0 mm 5 mps 746 mmHg 85%
    09:00 +13°C° 0 mm 5 mps 746 mmHg 81%
    10:00 +13°C° 0 mm 6 mps 746 mmHg 81%
    11:00 +14°C° 0 mm 7 mps 745 mmHg 80%
    12:00 +15°C° 0 mm 7 mps 745 mmHg 80%
    13:00 +15°C° 0.2 mm 7 mps 745 mmHg 76%
    14:00 +15°C° 0.2 mm 8 mps 745 mmHg 72%
    15:00 +16°C° 0.2 mm 8 mps 745 mmHg 69%
    16:00 +15°C° 0 mm 8 mps 745 mmHg 68%
    17:00 +14°C° 0 mm 7 mps 745 mmHg 68%
    18:00 +14°C° 0 mm 7 mps 745 mmHg 68%
    19:00 +13°C° 0 mm 6 mps 745 mmHg 70%
    20:00 +11°C° 0 mm 6 mps 746 mmHg 72%
    21:00 +9°C° 0 mm 5 mps 746 mmHg 73%
    22:00 +9°C° 0 mm 5 mps 746 mmHg 75%
    23:00 +8°C° 0 mm 5 mps 747 mmHg 77%

    6 June, Saturday

    Time Temperature Precipitation Wind Pressure Humidity
    00:00 +7°C° 0 mm 5 mps 747 mmHg 80%
    01:00 +7°C° 0 mm 5 mps 747 mmHg 81%
    02:00 +7°C° 0 mm 5 mps 748 mmHg 82%
    03:00 +7°C° 0 mm 5 mps 748 mmHg 83%
    04:00 +7°C° 0 mm 6 mps 749 mmHg 81%
    05:00 +8°C° 0 mm 6 mps 749 mmHg 79%
    06:00 +8°C° 0 mm 6 mps 749 mmHg 78%
    07:00 +9°C° 0 mm 6 mps 750 mmHg 72%
    08:00 +11°C° 0 mm 6 mps 750 mmHg 67%
    09:00 +13°C° 0 mm 6 mps 750 mmHg 61%
    10:00 +13°C° 0.1 mm 6 mps 751 mmHg 60%
    11:00 +14°C° 0.1 mm 6 mps 751 mmHg 58%
    12:00 +15°C° 0.1 mm 6 mps 751 mmHg 56%
    13:00 +15°C° 0.1 mm 6 mps 751 mmHg 56%
    14:00 +15°C° 0.1 mm 6 mps 751 mmHg 56%
    15:00 +14°C° 0.1 mm 6 mps 751 mmHg 56%
    16:00 +14°C° 0.2 mm 6 mps 751 mmHg 60%
    17:00 +13°C° 0.2 mm 5 mps 751 mmHg 64%
    18:00 +12°C° 0.2 mm 5 mps 751 mmHg 68%
    19:00 +9°C° 0 mm 5 mps 752 mmHg 72%
    20:00 +7°C° 0 mm 4 mps 752 mmHg 76%
    21:00 +5°C° 0 mm 3 mps 753 mmHg 80%
    22:00 +5°C° 0 mm 3 mps 753 mmHg 81%
    23:00 +4°C° 0 mm 3 mps 753 mmHg 82%
    Show more